Wind_Speed
51 48 44 42 38 36 34 30 28 20 20 19 18 19 18 19 21 22 28 31 31 31 32 31 32 33 32 33 32 29 26 25 25 25 25 27 27 29
47 48 45 40 38 36 34 33 30 26 19 13 16 16 16 17 23 28 30 33 32 32 31 32 33 33 32 29 25 24 25 24 25 26 26 27 28 28
41 44 41 39 37 34 34 30 30 28 26 25 20 19 23 24 22 29 30 30 30 31 31 32 32 30 27 25 25 25 25 25 25 26 27 27 27 28
37 39 36 34 33 32 28 27 26 24 25 22 23 24 23 19 23 30 31 30 30 30 31 30 28 27 26 25 24 25 24 24 25 26 27 28 28 28
35 32 31 32 29 26 25 23 20 18 19 20 19 21 18 22 26 27 25 27 28 28 29 25 23 24 22 23 25 26 26 27 28 29 30 30 30 31
27 28 27 23 22 21 19 16 17 17 18 17 17 19 24 24 23 22 20 20 23 24 25 23 22 21 23 24 24 25 26 29 29 29 30 30 29 30
20 18 17 18 16 17 17 17 16 15 17 18 19 20 20 14 15 16 19 20 21 23 21 19 20 22 23 22 23 24 25 26 28 29 30 30 30 31
14 14 15 16 15 16 16 16 11 11 16 18 18 15 14 14 15 16 17 19 21 19 15 22 23 25 24 22 23 25 25 27 28 29 29 29 30 31
14 14 13 14 13 12 10 10 11 13 16 15 17 16 16 15 18 22 17 18 22 23 23 26 23 25 22 24 25 26 26 24 24 24 27 29 29 31
9 10 10 7 7 8 10 11 14 15 16 18 18 17 17 17 15 18 20 21 21 22 19 26 23 22 23 25 27 24 21 22 23 23 24 27 28 30
3 2 3 4 7 9 11 13 13 12 15 19 22 23 20 19 18 18 18 17 21 22 20 21 21 20 24 28 22 24 28 27 25 24 26 28 29 30
2 4 6 7 7 8 8 10 11 14 16 18 13 15 15 15 14 16 17 20 20 21 10 18 20 20 17 26 23 28 28 31 30 30 28 27 27 29
5 7 7 8 10 11 11 11 14 17 15 16 14 12 12 12 13 15 17 19 21 24 21 19 29 28 23 29 34 33 33 33 33 35 33 28 25 23
6 8 10 11 11 12 13 16 16 15 13 12 12 11 12 14 15 15 15 19 21 23 21 23 29 27 29 35 39 40 38 34 32 34 29 27 28 26
10 11 10 10 12 13 12 11 10 10 10 11 11 13 14 16 16 15 16 17 21 22 20 17 23 26 29 34 39 41 38 36 27 26 31 29 30 29
9 10 10 11 11 10 8 8 8 8 10 12 13 15 16 17 16 16 19 19 23 24 22 22 23 26 31 32 33 40 37 32 32 29 29 31 30 29
11 10 10 10 9 8 8 8 8 10 11 13 16 17 18 18 17 17 20 21 24 26 27 25 24 26 28 30 33 33 33 35 33 33 33 36 35 34
11 11 11 10 8 8 7 8 9 11 13 15 17 19 20 20 20 20 20 20 24 27 29 29 29 30 32 33 25 32 35 35 36 35 32 35 39 33
11 11 10 9 8 8 8 9 10 12 14 16 18 20 21 21 20 22 22 22 26 28 31 30 28 27 31 36 32 23 31 37 35 34 34 33 38 39
11 11 10 10 9 9 10 11 12 14 16 18 19 20 21 22 23 24 24 26 28 31 34 33 30 28 29 36 44 43 31 29 34 39 39 35 35 34
12 12 11 11 12 12 12 13 15 16 18 20 21 22 22 23 25 26 27 28 29 32 36 37 34 30 33 35 38 40 37 35 35 35 36 37 35 34
13 13 13 13 14 14 15 16 18 19 20 22 24 25 24 25 27 28 28 30 32 34 37 38 38 37 34 34 39 44 48 45 39 36 31 29 31 30
14 14 14 14 15 16 18 19 21 22 22 24 26 27 27 28 28 28 30 31 33 35 37 39 40 37 37 39 40 42 45 45 44 43 38 30 30 29
Wind_Direction
241 241 241 240 239 240 240 232 229 233 241 236 245 247 252 260 267 276 283 287 291 292 292 292 291 291 290 287 286 284 281 281 280 280 280 277 277 275
241 238 235 233 236 235 233 234 238 234 226 227 237 245 256 269 277 285 287 290 293 295 296 294 293 294 293 290 287 283 282 280 279 279 278 276 277 277
244 240 234 237 236 233 234 233 234 228 237 235 247 249 258 269 291 288 289 291 292 294 296 295 295 294 289 286 284 282 280 279 277 277 276 276 277 275
241 236 231 230 226 230 226 226 232 233 238 244 256 269 280 293 285 281 285 287 291 294 294 295 293 287 286 287 284 281 280 280 279 277 276 276 275 273
235 227 223 218 222 228 234 237 245 255 261 262 269 278 286 278 279 282 289 291 292 297 298 296 288 285 286 284 282 282 281 281 281 279 277 275 273 272
222 221 225 225 227 234 239 247 255 256 262 273 287 281 283 286 289 293 294 291 293 300 298 296 289 290 285 286 284 282 282 284 285 282 278 276 274 272
205 204 215 230 234 242 249 249 253 259 283 282 271 281 289 287 279 281 285 294 296 301 299 294 297 298 298 297 289 285 284 284 283 279 277 276 274 274
204 214 221 233 240 245 247 254 276 287 269 278 283 276 274 273 278 284 288 297 299 305 294 296 299 298 300 297 292 291 292 290 286 281 277 275 273 271
213 220 225 231 235 249 279 278 271 271 275 271 273 273 275 278 276 285 288 284 284 293 293 292 302 297 300 301 303 303 299 294 287 282 280 277 274 273
207 215 225 252 279 275 272 275 274 278 272 266 267 273 279 284 282 290 293 294 288 289 288 288 301 291 294 299 308 308 305 302 295 290 284 280 276 274
216 243 253 273 278 264 266 272 280 279 276 279 279 281 280 277 276 278 277 281 285 289 290 281 301 295 295 308 311 314 317 314 310 301 292 284 280 277
284 297 300 288 275 266 274 273 277 282 287 291 285 287 286 281 275 273 277 277 284 295 300 297 303 312 310 315 310 306 311 312 310 307 304 296 286 278
301 300 289 285 277 266 270 279 281 286 289 288 291 291 286 283 281 280 279 279 283 286 310 294 303 304 289 294 307 308 311 315 310 306 304 299 293 280
294 296 294 295 287 279 278 277 281 283 284 287 289 290 287 288 287 284 281 288 291 298 311 295 290 299 298 299 301 311 308 310 307 303 304 302 298 291
301 292 289 293 291 292 289 284 285 284 283 285 288 290 293 295 291 285 289 292 296 305 312 307 302 306 302 300 303 305 307 313 308 302 307 307 304 299
300 300 298 298 296 294 293 288 283 283 285 287 290 298 301 301 296 298 301 298 300 309 313 318 314 310 308 307 307 305 306 292 311 310 309 307 303 300
311 308 307 305 301 299 295 291 288 288 291 297 302 306 304 300 292 293 297 297 302 313 318 321 318 316 311 310 307 310 309 307 311 316 314 307 306 303
306 300 298 296 292 289 291 291 294 297 299 302 305 306 305 300 294 296 300 299 303 312 317 325 326 322 321 315 305 311 310 309 315 309 304 300 300 301
299 300 297 293 291 290 294 299 305 305 305 306 307 309 308 301 295 297 301 300 305 312 315 321 322 312 304 300 310 296 297 308 310 310 313 303 299 306
300 297 291 287 286 288 294 301 306 310 309 309 308 310 313 306 298 297 299 300 304 311 315 317 319 320 300 299 307 310 311 306 307 305 305 307 302 304
297 294 286 284 285 287 293 299 304 308 309 310 311 311 312 312 306 300 298 299 302 306 309 312 316 316 312 315 298 300 304 302 302 298 301 300 297 304
295 293 290 289 290 291 294 298 303 306 309 311 311 310 311 310 310 308 302 301 302 305 307 310 318 322 311 301 297 299 305 310 310 306 299 293 293 279
297 296 292 289 289 290 293 297 300 304 307 308 309 310 309 308 309 310 307 304 304 306 310 312 316 315 301 300 298 298 302 306 308 311 309 304 302 300
Height
1475 1478 1481 1483 1485 1488 1490 1492 1493 1496 1498 1498 1502 1500 1499 1498 1498 1498 1497 1495 1496 1494 1491 1487 1484 1481 1479 1476 1474 1473 1472 1472 1471 1472 1471 1470 1470 1469
1464 1467 1470 1474 1477 1479 1481 1483 1489 1488 1493 1491 1494 1494 1493 1491 1494 1493 1491 1488 1487 1485 1482 1478 1475 1472 1469 1467 1465 1466 1465 1464 1464 1464 1464 1463 1461 1460
1459 1462 1457 1463 1465 1472 1473 1478 1478 1480 1485 1483 1486 1486 1486 1485 1487 1487 1484 1481 1479 1477 1474 1470 1468 1464 1461 1460 1458 1457 1456 1456 1455 1455 1455 1454 1452 1452
1452 1454 1456 1460 1465 1468 1470 1471 1472 1473 1477 1478 1480 1482 1480 1478 1480 1480 1479 1475 1473 1470 1467 1463 1460 1457 1455 1453 1451 1449 1448 1448 1447 1447 1446 1445 1444 1444
1445 1449 1453 1457 1460 1462 1469 1468 1471 1471 1475 1474 1470 1473 1475 1476 1474 1473 1471 1468 1466 1462 1459 1457 1452 1451 1450 1446 1443 1442 1440 1438 1437 1436 1435 1435 1434 1434
1443 1448 1452 1456 1460 1462 1465 1466 1467 1470 1472 1470 1469 1469 1470 1469 1467 1466 1465 1465 1460 1455 1451 1451 1447 1445 1443 1440 1437 1435 1433 1431 1429 1428 1426 1425 1423 1422
1442 1447 1452 1457 1457 1460 1461 1462 1462 1462 1463 1466 1463 1463 1464 1465 1467 1465 1460 1457 1453 1450 1446 1446 1442 1439 1435 1432 1430 1428 1426 1423 1421 1420 1418 1416 1415 1414
1445 1449 1451 1453 1454 1457 1459 1458 1458 1460 1462 1466 1463 1460 1460 1461 1461 1459 1455 1450 1448 1446 1443 1440 1438 1433 1429 1426 1423 1420 1417 1415 1413 1410 1408 1406 1406 1405
1446 1448 1447 1451 1451 1451 1454 1456 1454 1454 1455 1458 1461 1459 1456 1455 1453 1451 1449 1446 1444 1441 1439 1434 1432 1426 1423 1418 1415 1412 1409 1406 1404 1401 1399 1397 1396 1395
1445 1449 1449 1448 1448 1450 1452 1452 1453 1449 1451 1453 1454 1453 1450 1448 1448 1446 1444 1442 1440 1437 1436 1430 1426 1421 1417 1411 1407 1404 1402 1399 1396 1393 1390 1388 1386 1385
1447 1448 1448 1447 1448 1450 1450 1448 1447 1447 1449 1448 1447 1445 1443 1441 1441 1440 1438 1438 1434 1431 1429 1426 1420 1416 1410 1404 1400 1398 1395 1391 1388 1384 1381 1378 1375 1373
1447 1447 1447 1446 1446 1447 1446 1445 1445 1445 1444 1442 1441 1439 1437 1436 1435 1434 1433 1431 1430 1425 1423 1419 1414 1410 1401 1397 1395 1392 1388 1383 1378 1374 1371 1368 1365 1362
1446 1446 1446 1444 1444 1443 1441 1441 1441 1440 1439 1437 1435 1434 1432 1431 1430 1429 1428 1426 1423 1419 1417 1413 1407 1405 1402 1391 1387 1385 1380 1374 1370 1364 1361 1358 1355 1353
1445 1444 1442 1441 1440 1439 1438 1437 1436 1435 1433 1432 1431 1430 1429 1428 1426 1424 1422 1420 1417 1413 1412 1408 1401 1400 1395 1387 1379 1374 1371 1367 1362 1356 1352 1349 1346 1343
1443 1441 1439 1438 1436 1435 1434 1433 1432 1431 1430 1429 1428 1426 1425 1423 1421 1419 1417 1413 1410 1407 1405 1403 1398 1393 1388 1380 1372 1365 1360 1356 1354 1348 1344 1340 1336 1333
1440 1438 1436 1435 1433 1432 1430 1429 1428 1428 1427 1426 1424 1422 1420 1418 1415 1413 1410 1409 1405 1402 1399 1396 1392 1386 1379 1373 1367 1356 1353 1349 1344 1341 1336 1330 1326 1323
1437 1435 1433 1431 1430 1428 1428 1427 1426 1425 1424 1421 1419 1417 1415 1413 1411 1410 1407 1404 1400 1395 1391 1389 1384 1378 1372 1366 1358 1351 1344 1339 1335 1330 1326 1320 1316 1313
1434 1432 1431 1429 1428 1427 1426 1424 1423 1422 1420 1418 1416 1414 1411 1409 1406 1404 1402 1398 1394 1390 1385 1381 1375 1369 1362 1356 1353 1343 1338 1332 1327 1324 1320 1314 1305 1304
1431 1429 1428 1426 1425 1424 1423 1421 1420 1419 1417 1415 1413 1410 1407 1403 1401 1398 1395 1392 1388 1384 1379 1374 1369 1364 1356 1345 1344 1342 1334 1325 1321 1315 1312 1307 1299 1292
1428 1427 1425 1424 1422 1421 1419 1418 1417 1416 1414 1411 1409 1405 1402 1398 1394 1392 1389 1386 1382 1377 1371 1367 1363 1358 1352 1343 1329 1325 1327 1319 1314 1306 1301 1297 1291 1286
1425 1423 1422 1421 1420 1418 1416 1415 1413 1412 1409 1407 1404 1400 1397 1392 1389 1386 1382 1379 1375 1370 1363 1358 1354 1351 1344 1336 1325 1316 1315 1314 1309 1302 1295 1290 1284 1277
1422 1421 1420 1418 1417 1416 1413 1411 1409 1407 1404 1402 1398 1395 1391 1387 1383 1379 1375 1371 1367 1362 1355 1348 1343 1337 1333 1327 1319 1310 1302 1298 1296 1292 1288 1285 1279 1271
1419 1418 1416 1415 1413 1411 1409 1407 1404 1401 1399 1396 1392 1389 1385 1381 1377 1373 1368 1364 1359 1353 1347 1339 1333 1329 1325 1320 1312 1303 1296 1288 1283 1276 1273 1273 1268 1263